When you browse on this site, cookies collect data to enhance your experience and personalize the content and advertising you see.
Visit our Privacy Policy to learn more. By continuing to use the site, you agree to this use of cookies and data.
  • In Latvia
  • List of Countries
  • For 7 days
  • Water Temperature
  • Satellite Maps
  • Weather Map
  • Weather Widgets
  • user-avatar
    Login

    Hourly Weather Wiktoria

    Today, 20 July, Saturday

    Time Temperature Precipitation Wind Pressure Humidity
    00:00 +8°C° 0 mm 3 mps 755 mmHg 82%
    01:00 +9°C° 0 mm 3 mps 754 mmHg 80%
    02:00 +9°C° 0 mm 3 mps 754 mmHg 80%
    03:00 +9°C° 0 mm 3 mps 754 mmHg 79%
    04:00 +9°C° 0 mm 3 mps 754 mmHg 76%
    05:00 +8°C° 0 mm 3 mps 754 mmHg 80%
    06:00 +7°C° 0 mm 3 mps 754 mmHg 85%
    07:00 +5°C° 0 mm 3 mps 754 mmHg 90%
    08:00 +7°C° 0 mm 4 mps 754 mmHg 87%
    09:00 +8°C° 0 mm 4 mps 754 mmHg 84%
    10:00 +9°C° 0 mm 5 mps 754 mmHg 78%
    11:00 +10°C° 0 mm 5 mps 753 mmHg 76%
    12:00 +12°C° 0 mm 5 mps 753 mmHg 74%
    13:00 +13°C° 0 mm 6 mps 752 mmHg 72%
    14:00 +13°C° 0 mm 5 mps 751 mmHg 73%
    15:00 +13°C° 0 mm 5 mps 751 mmHg 74%
    16:00 +13°C° 0 mm 4 mps 751 mmHg 75%
    17:00 +12°C° 0 mm 4 mps 750 mmHg 78%
    18:00 +10°C° 0 mm 5 mps 750 mmHg 82%
    19:00 +9°C° 0 mm 5 mps 750 mmHg 85%
    20:00 +8°C° 0 mm 5 mps 750 mmHg 85%
    21:00 +8°C° 0 mm 5 mps 750 mmHg 85%
    22:00 +8°C° 0 mm 5 mps 750 mmHg 85%
    23:00 +7°C° 0 mm 5 mps 749 mmHg 86%

    Tomorrow, 21 July, Sunday

    Time Temperature Precipitation Wind Pressure Humidity
    00:00 +7°C° 0 mm 5 mps 749 mmHg 86%
    01:00 +6°C° 0 mm 5 mps 748 mmHg 87%
    02:00 +6°C° 0 mm 5 mps 748 mmHg 86%
    03:00 +6°C° 0 mm 5 mps 747 mmHg 86%
    04:00 +6°C° 0 mm 5 mps 747 mmHg 86%
    05:00 +5°C° 0 mm 5 mps 747 mmHg 85%
    06:00 +5°C° 0 mm 5 mps 747 mmHg 85%
    07:00 +5°C° 0 mm 5 mps 747 mmHg 85%
    08:00 +6°C° 0 mm 5 mps 747 mmHg 82%
    09:00 +7°C° 0 mm 5 mps 747 mmHg 79%
    10:00 +8°C° 0 mm 5 mps 748 mmHg 77%
    11:00 +8°C° 0.4 mm 4 mps 748 mmHg 79%
    12:00 +10°C° 0.4 mm 3 mps 747 mmHg 82%
    13:00 +10°C° 0.4 mm 2 mps 747 mmHg 85%
    14:00 +10°C° 0.1 mm 2 mps 747 mmHg 85%
    15:00 +10°C° 0.1 mm 2 mps 748 mmHg 84%
    16:00 +12°C° 0.1 mm 2 mps 748 mmHg 84%
    17:00 +9°C° 0 mm 2 mps 748 mmHg 88%
    18:00 +8°C° 0 mm 2 mps 748 mmHg 91%
    19:00 +7°C° 0 mm 1 mps 749 mmHg 94%
    20:00 +7°C° 0 mm 1 mps 749 mmHg 94%
    21:00 +7°C° 0 mm 1 mps 750 mmHg 94%
    22:00 +6°C° 0 mm 1 mps 750 mmHg 94%
    23:00 +6°C° 0 mm 1 mps 750 mmHg 94%

    Day after tomorrow, 22 July, Monday

    Time Temperature Precipitation Wind Pressure Humidity
    00:00 +6°C° 0 mm 1 mps 750 mmHg 94%
    01:00 +5°C° 0 mm 2 mps 750 mmHg 94%
    02:00 +5°C° 0 mm 2 mps 750 mmHg 94%
    03:00 +4°C° 0 mm 2 mps 750 mmHg 94%
    04:00 +4°C° 0 mm 2 mps 750 mmHg 94%
    05:00 +4°C° 0 mm 2 mps 750 mmHg 94%
    06:00 +4°C° 0 mm 2 mps 750 mmHg 94%
    07:00 +4°C° 0 mm 2 mps 750 mmHg 95%
    08:00 +4°C° 0 mm 3 mps 750 mmHg 93%
    09:00 +7°C° 0 mm 3 mps 750 mmHg 90%
    10:00 +8°C° 0 mm 3 mps 750 mmHg 88%
    11:00 +10°C° 0 mm 4 mps 750 mmHg 83%
    12:00 +11°C° 0 mm 4 mps 749 mmHg 77%
    13:00 +13°C° 0 mm 5 mps 748 mmHg 71%
    14:00 +13°C° 0 mm 5 mps 748 mmHg 71%
    15:00 +13°C° 0 mm 4 mps 747 mmHg 72%
    16:00 +13°C° 0 mm 4 mps 747 mmHg 72%
    17:00 +11°C° 0 mm 4 mps 747 mmHg 76%
    18:00 +8°C° 0 mm 4 mps 747 mmHg 79%
    19:00 +7°C° 0 mm 4 mps 747 mmHg 82%
    20:00 +7°C° 0 mm 4 mps 747 mmHg 79%
    21:00 +6°C° 0 mm 4 mps 747 mmHg 77%
    22:00 +6°C° 0 mm 5 mps 747 mmHg 74%
    23:00 +6°C° 0 mm 5 mps 747 mmHg 73%

    23 July, Tuesday

    Time Temperature Precipitation Wind Pressure Humidity
    00:00 +6°C° 0 mm 4 mps 747 mmHg 72%
    01:00 +6°C° 0 mm 4 mps 747 mmHg 71%
    02:00 +6°C° 0 mm 4 mps 747 mmHg 68%
    03:00 +8°C° 0 mm 3 mps 747 mmHg 66%
    04:00 +8°C° 0 mm 3 mps 747 mmHg 64%
    05:00 +8°C° 0.1 mm 2 mps 748 mmHg 71%
    06:00 +8°C° 0.1 mm 2 mps 748 mmHg 78%
    07:00 +8°C° 0.1 mm 2 mps 749 mmHg 85%
    08:00 +9°C° 0 mm 3 mps 749 mmHg 82%
    09:00 +9°C° 0 mm 3 mps 749 mmHg 79%
    10:00 +10°C° 0 mm 4 mps 750 mmHg 76%
    11:00 +11°C° 0.1 mm 4 mps 749 mmHg 73%
    12:00 +11°C° 0.1 mm 4 mps 749 mmHg 70%
    13:00 +12°C° 0.1 mm 5 mps 749 mmHg 66%
    14:00 +10°C° 0.1 mm 5 mps 748 mmHg 68%
    15:00 +11°C° 0.1 mm 4 mps 748 mmHg 70%
    16:00 +11°C° 0.1 mm 4 mps 747 mmHg 72%
    17:00 +11°C° 0 mm 4 mps 747 mmHg 70%
    18:00 +10°C° 0 mm 4 mps 747 mmHg 69%
    19:00 +10°C° 0 mm 4 mps 747 mmHg 68%
    20:00 +9°C° 0 mm 5 mps 747 mmHg 66%
    21:00 +9°C° 0 mm 6 mps 747 mmHg 65%
    22:00 +9°C° 0 mm 7 mps 747 mmHg 63%
    23:00 +9°C° 0.3 mm 7 mps 747 mmHg 70%

    24 July, Wednesday

    Time Temperature Precipitation Wind Pressure Humidity
    00:00 +7°C° 0.3 mm 8 mps 748 mmHg 78%
    01:00 +6°C° 0.3 mm 8 mps 748 mmHg 85%
    02:00 +5°C° 0 mm 7 mps 749 mmHg 87%
    03:00 +5°C° 0 mm 5 mps 749 mmHg 89%
    04:00 +3°C° 0 mm 4 mps 750 mmHg 91%
    05:00 +1°C° 0 mm 4 mps 751 mmHg 92%
    06:00 +2°C° 0 mm 3 mps 751 mmHg 93%
    07:00 +1°C° 0 mm 3 mps 752 mmHg 95%
    08:00 +2°C° 0 mm 3 mps 753 mmHg 89%
    09:00 +4°C° 0 mm 3 mps 754 mmHg 84%
    10:00 +5°C° 0 mm 4 mps 754 mmHg 79%
    11:00 +6°C° 0 mm 4 mps 754 mmHg 74%
    12:00 +7°C° 0 mm 4 mps 754 mmHg 69%
    13:00 +8°C° 0 mm 4 mps 754 mmHg 64%
    14:00 +8°C° 0 mm 4 mps 754 mmHg 65%
    15:00 +8°C° 0 mm 4 mps 754 mmHg 66%
    16:00 +8°C° 0 mm 4 mps 754 mmHg 66%
    17:00 +8°C° 0 mm 3 mps 754 mmHg 68%
    18:00 +7°C° 0 mm 3 mps 755 mmHg 70%
    19:00 +6°C° 0 mm 2 mps 755 mmHg 72%
    20:00 +5°C° 0 mm 2 mps 756 mmHg 76%
    21:00 +4°C° 0 mm 2 mps 756 mmHg 80%
    22:00 +3°C° 0 mm 2 mps 756 mmHg 84%
    23:00 +4°C° 0 mm 1 mps 756 mmHg 86%

    25 July, Thursday

    Time Temperature Precipitation Wind Pressure Humidity
    00:00 +4°C° 0 mm 1 mps 756 mmHg 88%
    01:00 +3°C° 0 mm 1 mps 756 mmHg 89%
    02:00 +3°C° 0 mm 1 mps 756 mmHg 90%
    03:00 +3°C° 0 mm 1 mps 756 mmHg 90%
    04:00 +2°C° 0 mm 1 mps 756 mmHg 91%
    05:00 +2°C° 0 mm 1 mps 756 mmHg 91%
    06:00 +1°C° 0 mm 0 mps 756 mmHg 91%
    07:00 +1°C° 0 mm 0 mps 756 mmHg 91%
    08:00 +2°C° 0 mm 0 mps 756 mmHg 86%
    09:00 +5°C° 0 mm 1 mps 756 mmHg 82%
    10:00 +7°C° 0 mm 1 mps 756 mmHg 77%
    11:00 +8°C° 0 mm 1 mps 756 mmHg 75%
    12:00 +8°C° 0 mm 2 mps 755 mmHg 72%
    13:00 +9°C° 0 mm 2 mps 755 mmHg 70%
    14:00 +9°C° 0 mm 2 mps 755 mmHg 73%
    15:00 +9°C° 0 mm 2 mps 755 mmHg 75%
    16:00 +9°C° 0 mm 1 mps 754 mmHg 77%
    17:00 +9°C° 0 mm 1 mps 755 mmHg 77%
    18:00 +8°C° 0 mm 1 mps 755 mmHg 76%
    19:00 +8°C° 0 mm 1 mps 755 mmHg 76%
    20:00 +8°C° 0 mm 1 mps 755 mmHg 76%
    21:00 +8°C° 0 mm 1 mps 755 mmHg 76%
    22:00 +8°C° 0 mm 1 mps 755 mmHg 77%
    23:00 +7°C° 0 mm 1 mps 755 mmHg 77%
    Show more